Flag for U.S.A. Weather past 2 weeks in Cedar Rapids, Iowa, U.S.A.

Now
65 °F

Passing clouds.


Feels Like: 65 °F
Forecast: 57 / 78 °F
Wind: 8 mph from Northeast

Location: Cedar Rapids Municipal Airport

Current Time: Sep 2, 2014 at 9:17:32 AM

Latest Report: Sep 2, 2014 at 8:52 AM


Visibility: 10 mi

Pressure: 29.93 "Hg

Humidity: 85%

Dew point: 60 °F

Location of Cedar RapidsLocation

Historic Weather in Cedar Rapids — Graph

°F

Cedar Rapids temperature yesterday

Maximum temperature yesterday: 79 °F (at 1:52 PM)
Minimum temperature yesterday: 63 °F (at 11:52 PM)
Average temperature yesterday: 70 °F

Past Weeks' High & Low Weather Summary

 TemperatureHumidityPressure
High91 °F (Aug 24, 3:52 PM)100% (Aug 18, 8:52 AM)30.18 "Hg (Aug 18, 8:52 AM)
Low59 °F (Sep 2, 5:52 AM)51% (Aug 19, 2:52 PM)29.68 "Hg (Aug 19, 4:52 AM)
Average73 °F88%29.89 "Hg
* Reported Aug 18 8:52 AM — Sep 2 8:04 AM, Cedar Rapids, Weather by CustomWeather, © 2014

Note: Actual official high and low records may vary slightly from our data, if they occured in-between our weather recording intervals... More about our weather records

Advertising

Cedar Rapids weather history for previous 24 hours

 ConditionsComfort  
Time TempWeatherWind HumidityBarometerVisibility
8:04 AM
Sep 2
65 °FThundershowers. Passing clouds.7 mph91%29.94 "Hg10 mi
7:52 AM64 °FPassing clouds.3 mph97%29.90 "Hg10 mi
6:52 AM61 °FClear.6 mph97%29.89 "Hg9 mi
5:52 AM59 °FFog.5 mph100%29.87 "Hg5 mi
4:52 AM61 °FClear.No wind100%29.85 "Hg8 mi
3:52 AM61 °FClear.No wind100%29.86 "Hg7 mi
2:52 AM62 °FClear.5 mph100%29.87 "Hg9 mi
1:52 AM61 °FFog.3 mph100%29.87 "Hg2 mi
12:52 AM63 °FClear.3 mph100%29.86 "Hg10 mi
11:52 PM
Sep 1
63 °FClear.3 mph100%29.86 "Hg7 mi
10:52 PM67 °FClear.No wind97%29.83 "Hg10 mi
9:52 PM67 °FPassing clouds.3 mph93%29.84 "Hg10 mi
8:52 PM67 °FClear.5 mph93%29.83 "Hg10 mi
7:52 PM69 °FSunny.6 mph87%29.80 "Hg10 mi
6:52 PM74 °FPassing clouds.8 mph74%29.81 "Hg10 mi
5:52 PM77 °FPassing clouds.10 mph69%29.80 "Hg10 mi
4:52 PM79 °FScattered clouds.16 mph62%29.78 "Hg10 mi
3:52 PM79 °FScattered clouds.14 mph65%29.76 "Hg10 mi
2:52 PM78 °FScattered clouds.15 mph69%29.76 "Hg10 mi
1:52 PM79 °FScattered clouds.15 mph69%29.75 "Hg10 mi
12:52 PM78 °FScattered clouds.16 mph71%29.75 "Hg10 mi
11:52 AM75 °FScattered clouds.15 mph76%29.75 "Hg10 mi
10:52 AM73 °FPartly sunny.14 mph81%29.75 "Hg10 mi
9:55 AM72 °FPartly sunny.14 mph84%29.76 "Hg10 mi
9:52 AM71 °FScattered clouds.15 mph87%29.74 "Hg10 mi
Weather by CustomWeather, © 2014

See weather overviewHow to use our weather pages